FW2522 Weather Reports


time (UTC)temp
F
wind
direction
speed
knots
gust
knots
rain 1hr
in
rain 24hr
in
rain mn
in
humidity
%
barometer
mb
20260508164516 66 360 1.7 7.0 0.00 0.00 0.00 32 1018.0
20260508163017 66 360 1.7 8.7 0.00 0.00 0.00 33 1018.1
20260508161528 64 360 2.6 7.0 0.00 0.00 0.00 33 1018.3
20260508160013 65 360 2.6 4.3 0.00 0.00 0.00 34 1018.6
20260508154511 64 360 0.9 5.2 0.00 0.00 0.00 38 1018.8
20260508153017 63 360 3.5 7.8 0.00 0.01 0.00 36 1018.9
20260508151512 63 360 0.9 8.7 0.00 0.01 0.00 37 1018.9
20260508150041 63 360 1.7 5.2 0.00 0.01 0.00 38 1018.9
20260508144540 63 360 2.6 8.7 0.00 0.01 0.00 41 1019.0
20260508143010 62 360 2.6 7.8 0.00 0.05 0.00 42 1019.0
20260508141510 61 360 0.9 4.3 0.00 0.05 0.00 41 1019.1
20260508140008 61 360 1.7 7.8 0.00 0.05 0.00 43 1019.3
20260508134510 60 360 2.6 7.0 0.00 0.05 0.00 43 1019.0
20260508133005 59 360 2.6 7.8 0.00 0.07 0.00 31 1019.1
20260508131505 58 360 2.6 4.3 0.00 0.07 0.00 34 1019.1
20260508130003 57 360 3.5 7.0 0.00 0.07 0.00 35 1018.9
20260508124600 56 360 2.6 7.0 0.00 0.07 0.00 38 1018.8
20260508123058 54 360 2.6 5.2 0.00 0.14 0.00 42 1018.6
20260508121556 53 360 0.9 2.6 0.00 0.14 0.00 46 1018.4
20260508120111 52 360 0.9 2.6 0.00 0.14 0.00 47 1018.3
20260508114559 51 360 0.0 0.9 0.00 0.14 0.00 47 1018.1
20260508113050 49 360 0.0 1.7 0.00 0.18 0.00 50 1017.6
20260508111545 48 360 0.0 1.7 0.00 0.18 0.00 50 1017.3
20260508110045 46 360 0.0 0.9 0.00 0.18 0.00 50 1017.1
20260508104539 46 360 0.0 0.9 0.00 0.18 0.00 48 1016.9
20260508103045 46 360 0.0 0.0 0.00 0.19 0.00 48 1016.6
20260508101536 46 360 0.0 0.9 0.00 0.19 0.00 48 1016.3
20260508100053 45 360 0.0 0.9 0.00 0.19 0.00 47 1016.1
20260508094531 45 360 0.0 1.7 0.00 0.19 0.00 46 1016.1
20260508093035 46 360 0.0 0.0 0.00 0.19 0.00 46 1016.0
20260508091528 46 360 0.0 0.0 0.00 0.19 0.00 45 1015.8
20260508090027 46 360 0.0 0.0 0.00 0.19 0.00 44 1015.8
20260508084523 47 360 0.0 0.0 0.00 0.19 0.00 43 1015.7
20260508083021 47 360 0.0 0.0 0.00 0.20 0.00 42 1015.6
20260508081518 47 360 0.0 0.0 0.00 0.20 0.00 43 1015.5
20260508080016 47 360 0.0 0.0 0.00 0.20 0.00 45 1015.4
20260508074514 48 360 0.0 0.0 0.00 0.20 0.00 49 1015.3
20260508073010 49 360 0.0 0.0 0.00 0.25 0.00 52 1015.2
20260508071540 49 360 0.0 0.0 0.00 0.25 0.00 53 1015.2
20260508070036 49 360 0.0 0.0 0.00 0.25 0.00 56 1014.9
20260508064536 50 360 0.0 0.0 0.00 0.25 0.00 58 1014.8
20260508063033 51 360 0.0 0.0 0.00 0.30 0.00 57 1014.7
20260508061529 51 360 0.0 0.0 0.00 0.30 0.00 58 1014.7
20260508060030 51 360 0.0 1.7 0.00 0.30 0.00 58 1014.9
20260508054603 51 360 0.0 0.0 0.00 0.30 0.00 58 1014.9
20260508053031 51 360 0.0 0.0 0.00 0.48 0.00 58 1014.8
20260508051521 52 360 0.0 0.0 0.00 0.48 0.00 58 1014.7
20260508050019 52 360 0.0 0.0 0.00 0.48 0.00 57 1014.5
20260508044547 53 360 0.0 0.0 0.00 0.48 0.00 56 1014.5
20260508043049 54 360 0.9 2.6 0.00 0.48 0.00 54 1014.4
20260508041543 55 360 0.0 1.7 0.00 0.48 0.00 53 1014.3
20260508040037 56 360 0.0 0.0 0.00 0.48 0.00 52 1014.3
20260508034543 56 360 0.0 0.9 0.00 0.48 0.00 51 1014.2
20260508033035 56 360 1.7 2.6 0.00 0.52 0.00 50 1014.2
20260508031534 57 360 0.0 2.6 0.00 0.52 0.00 50 1014.0
20260508030028 57 360 0.0 2.6 0.00 0.52 0.00 50 1014.2
20260508024527 57 360 1.7 3.5 0.00 0.52 0.00 48 1013.7
20260508023024 58 360 1.7 3.5 0.00 0.54 0.00 49 1013.6
20260508021555 58 360 0.9 2.6 0.00 0.54 0.00 49 1013.5
20260508014545 59 360 2.6 4.3 0.00 0.54 0.00 50 1012.9
20260508013041 60 360 1.7 3.5 0.00 0.71 0.00 52 1012.5
20260508011540 60 360 2.6 8.7 0.00 0.71 0.00 53 1012.5
20260508010048 61 360 0.0 0.9 0.00 0.71 0.00 56 1012.3
20260508004534 61 360 0.0 2.6 0.00 0.71 0.00 57 1011.9
20260508003031 61 360 1.7 3.5 0.00 0.90 0.00 57 1011.4
20260508001530 62 360 1.7 7.0 0.00 0.90 0.00 56 1011.2
20260508000026 62 360 3.5 9.6 0.00 0.90 0.00 56 1010.8
20260507234521 63 360 2.6 7.0 0.00 0.90 0.00 56 1010.7
20260507233020 63 360 4.3 10.4 0.00 0.92 0.00 57 1010.3
20260507231518 63 360 7.0 12.2 0.00 0.92 0.00 57 1010.2
20260507230023 64 360 7.0 10.4 0.00 0.92 0.00 57 1010.0
20260507224514 64 360 7.8 13.9 0.00 0.92 0.00 57 1009.4
20260507223007 66 360 8.7 14.8 0.00 0.92 0.00 57 1009.0
20260507221503 67 360 7.8 13.9 0.00 0.92 0.00 56 1008.7
20260507220059 72 360 12.2 19.1 0.00 0.92 0.00 52 1008.4
20260507214555 76 227 3.5 7.8 0.00 0.92 0.00 45 1007.6
20260507213052 77 239 4.3 10.4 0.00 0.92 0.00 43 1007.5
20260507211555 77 217 3.5 10.4 0.00 0.92 0.00 41 1007.3
20260507210056 76 244 4.3 12.2 0.00 0.92 0.00 42 1007.2
20260507204550 77 178 5.2 10.4 0.00 0.92 0.00 40 1007.2
20260507203047 76 229 6.1 10.4 0.00 0.92 0.00 40 1007.2
20260507201543 76 237 3.5 8.7 0.00 0.92 0.00 39 1007.4
20260507200041 77 197 3.5 7.0 0.00 0.92 0.00 39 1007.3
20260507194538 77 291 2.6 9.6 0.00 0.92 0.00 31 1007.5
20260507193035 76 237 5.2 10.4 0.00 0.92 0.92 29 1007.7
20260507191529 76 234 3.5 10.4 0.00 0.92 0.92 27 1007.8
20260507190026 75 206 5.2 11.3 0.00 0.92 0.92 27 1008.2
20260507184626 74 217 2.6 7.8 0.00 0.92 0.92 30 1008.4
20260507183053 73 242 2.6 7.8 0.00 0.92 0.92 29 1008.4
20260507181553 73 237 3.5 9.6 0.00 0.92 0.92 30 1008.5
20260507180057 72 232 3.5 8.7 0.00 0.92 0.92 31 1008.4
20260507174602 71 254 3.5 7.8 0.00 0.92 0.92 33 1008.5
20260507173049 71 202 2.6 7.8 0.00 1.06 0.92 36 1008.9
20260507171600 70 360 3.5 7.0 0.00 1.06 0.92 39 1009.3
20260507170016 69 360 2.6 5.2 0.00 1.06 0.92 44 1009.2